Tracking 20942 objects as of 15-Jul-2020
HD Live streaming from Space Station
objects crossing your sky now

ARIANE 2 DEB

Track ARIANE 2 DEB now!


NORAD ID: 27650
Int'l Code: 1989-006AE
Perigee: 413.3 km
Apogee: 35,156.8 km
Inclination: 8.4 °
Period: 622.7 minutes
Semi major axis: 24156 km
RCS: 0.1719 m2 (medium)
Launch date: January 27, 1989
Source: France (FR)
Launch site: FRENCH GUIANA (FRGUI)

Note: This is SATELLITE DEBRIS
aabbcc
Your satellite tracking list
Your tracking list is empty




NASA's NSSDC Master Catalog

Two Line Element Set (TLE):
1 27650U 89006AE  20196.12665496  .00000069  00000-0  20365-3 0  9994
2 27650   8.4357  60.3419 7191479 132.9304 315.1037  2.31240975157907
Source of the keplerian elements: AFSPC